Weather History for Naples, FL

Change the Weather History Date:

Friday, April 12, 2013

  Actual Average Record
Temperature  
Mean Temperature 81 °F 73 °F  
Max Temperature 86 °F 83 °F 91 °F (1979)
Min Temperature 76 °F 63 °F 41 °F (1973)
Degree Days  
Heating Degree Days 0 0  
Month to date heating degree days 0 0  
Since 1 July heating degree days 182 256  
Cooling Degree Days 16 8  
Month to date cooling degree days 111 87  
Year to date cooling degree days 502 454  
Growing Degree Days 30 (Base 50)    
Moisture  
Dew Point 73 °F    
Average Humidity 78    
Maximum Humidity 94    
Minimum Humidity 61    
Precipitation  
Precipitation T in 0.09 in 4.60 in (1997)
Month to date precipitation 1.44 0.97  
Year to date precipitation 3.88 7.30  
Snow  
Snow 0.00 in - - ()
Month to date snowfall 0.0  
Since 1 July snowfall 0.0  
Snow Depth 0.00 in    
Sea Level Pressure  
Sea Level Pressure 29.92 in    
Wind  
Wind Speed 11 mph (South)    
Max Wind Speed 20 mph    
Max Gust Speed 25 mph    
Visibility 9 miles    
Events      
T = Trace of Precipitation, MM = Missing Value Source: NWS Daily Summary

Daily Weather History Graph

Daily Weather History Graph

Search for Another Location

Airport:

Trip Planner

Search our weather history database for the weather conditions in past years. The results will help you decide how hot, cold, wet, or windy it might be!

Date:

Astronomy

Apr. 12, 2013 Rise Set
Actual Time 7:06 AM EDT 7:49 PM EDT
Civil Twilight 6:43 AM EDT 8:12 PM EDT
Nautical Twilight 6:15 AM EDT 8:40 PM EDT
Astronomical Twilight 5:47 AM EDT 9:08 PM EDT
Moon 8:27 AM EDT (4/12) 10:04 PM EDT (4/12)
Length of Visible Light 13h 29m
Length of Day
12h 42m
Waxing Crescent, 5% of the Moon is Illuminated
Apr 12
Waxing Crescent
Apr 18
First Quarter
Apr 25
Full
May 2
Last Quarter
May 9
New

Hourly Weather History & Observations

Time (EDT) Temp. Heat Index Dew Point Humidity Pressure Visibility Wind Dir Wind Speed Gust Speed Precip Events Conditions
2:53 AM 78.1 °F - 73.9 °F 87% 29.90 in 9.0 mi SSE 8.1 mph - 0.00 in   Overcast
3:50 AM 77.0 °F - 73.4 °F 89% 29.91 in 9.0 mi SSE 9.2 mph - N/A   Overcast
3:53 AM 77.0 °F - 73.9 °F 90% 29.91 in 9.0 mi SSE 9.2 mph - N/A   Overcast
4:09 AM 77.0 °F - 73.4 °F 89% 29.91 in 9.0 mi SSE 8.1 mph - N/A   Overcast
4:53 AM 77.0 °F - 73.9 °F 90% 29.90 in 9.0 mi South 9.2 mph - N/A   Overcast
5:53 AM 77.0 °F - 73.9 °F 90% 29.88 in 8.0 mi South 11.5 mph - N/A   Clear
6:53 AM 75.9 °F - 73.0 °F 91% 29.90 in 8.0 mi SSE 5.8 mph - N/A   Partly Cloudy
7:53 AM 75.9 °F - 73.9 °F 94% 29.91 in 6.0 mi SSE 8.1 mph - N/A   Mostly Cloudy
7:59 AM 77.0 °F - 73.4 °F 89% 29.92 in 6.0 mi SSE 8.1 mph - N/A   Overcast
8:53 AM 79.0 °F - 73.9 °F 84% 29.93 in 8.0 mi SSE 10.4 mph - N/A   Mostly Cloudy
9:16 AM 80.6 °F 85.4 °F 73.4 °F 79% 29.93 in 8.0 mi SSE 11.5 mph - N/A   Mostly Cloudy
9:53 AM 82.0 °F 87.4 °F 73.0 °F 74% 29.92 in 10.0 mi South 13.8 mph - N/A   Scattered Clouds
10:15 AM 82.4 °F 87.2 °F 71.6 °F 70% 29.93 in 10.0 mi SSE 13.8 mph 21.9 mph N/A   Mostly Cloudy
10:53 AM 82.9 °F 88.0 °F 72.0 °F 69% 29.94 in 10.0 mi SSE 16.1 mph - N/A   Mostly Cloudy
11:53 AM 84.0 °F 89.0 °F 71.1 °F 65% 29.94 in 10.0 mi South 17.3 mph - N/A   Mostly Cloudy
12:00 PM 84.2 °F 89.6 °F 71.6 °F 66% 29.94 in 10.0 mi South 18.4 mph - N/A   Scattered Clouds
12:53 PM 84.0 °F 89.6 °F 72.0 °F 67% 29.94 in 10.0 mi South 13.8 mph - N/A   Scattered Clouds
1:53 PM 84.9 °F 90.1 °F 71.1 °F 63% 29.92 in 10.0 mi South 15.0 mph - N/A   Scattered Clouds
2:53 PM 86.0 °F 91.5 °F 71.1 °F 61% 29.90 in 10.0 mi South 12.7 mph - N/A   Clear
3:53 PM 84.0 °F 89.6 °F 72.0 °F 67% 29.89 in 10.0 mi South 13.8 mph - N/A   Scattered Clouds
4:53 PM 82.9 °F 87.5 °F 71.1 °F 67% 29.90 in 10.0 mi SW 15.0 mph - N/A   Clear
5:53 PM 82.0 °F 87.4 °F 73.0 °F 74% 29.90 in 10.0 mi SSW 10.4 mph - N/A   Clear
6:53 PM 80.1 °F 84.2 °F 73.0 °F 79% 29.91 in 10.0 mi SW 10.4 mph - N/A   Clear
7:53 PM 78.1 °F - 73.0 °F 84% 29.91 in 9.0 mi SSW 8.1 mph - N/A   Clear
8:53 PM 78.1 °F - 73.0 °F 84% 29.94 in 10.0 mi SSW 5.8 mph - N/A   Clear
9:53 PM 77.0 °F - 73.0 °F 88% 29.94 in 10.0 mi South 8.1 mph - N/A   Clear
10:53 PM 77.0 °F - 73.0 °F 88% 29.95 in 9.0 mi South 6.9 mph - N/A   Clear
11:53 PM 77.0 °F - 73.0 °F 88% 29.94 in 9.0 mi South 6.9 mph - N/A   Clear